Location: Voyageurs National Park
(48.5020°N, 92.9292°W)
Time: 12:33:42
(UTC-05:00)

PCSat - Visible Passes

Search period start: 31 July 2014 00:00
Search period end: 10 August 2014 00:00
Orbit: 786 x 796 km, 67.1° (Epoch: 30 July)

Date Brightness Start Highest point End Pass type
(mag) Time Alt. Az. Time Alt. Az. Time Alt. Az.
31 Jul 9.6 01:04:51 57° SSE 01:05:32 62° ESE 01:10:55 10° NE visible
31 Jul 11.1 02:45:33 14° W 02:49:21 30° NW 02:54:08 10° NNE visible
31 Jul 12.1 04:32:22 10° NW 04:34:37 12° NNW 04:36:52 10° N visible
01 Aug 9.8 00:34:46 47° SE 00:35:04 47° ESE 00:40:15 10° NE visible
01 Aug 10.8 02:15:28 20° W 02:18:38 37° NW 02:23:40 10° NNE visible
01 Aug 12.1 04:00:58 10° NW 04:03:41 14° NNW 04:06:25 10° N visible
02 Aug 10.2 00:04:38 36° ESE 00:04:38 36° ESE 00:09:32 10° NE visible
02 Aug 10.4 01:45:20 27° WSW 01:47:57 46° NW 01:53:12 10° NNE visible
02 Aug 12.0 03:29:37 10° WNW 03:32:47 15° NNW 03:35:58 10° NNE visible
02 Aug 10.6 23:34:26 27° ESE 23:34:26 27° ESE 23:38:43 10° NE visible
03 Aug 10.0 01:15:08 34° WSW 01:17:19 58° NW 01:22:42 10° NNE visible
03 Aug 11.9 02:58:18 10° WNW 03:01:55 18° NNW 03:05:32 10° NNE visible
03 Aug 12.4 04:46:37 10° NNW 04:47:43 11° N 04:48:49 10° N visible
03 Aug 10.9 23:04:10 20° ESE 23:04:10 20° ESE 23:07:46 10° ENE visible
04 Aug 9.7 00:44:51 42° SW 00:46:43 74° NW 00:52:10 10° NNE visible
04 Aug 11.8 02:27:04 10° W 02:31:05 20° NNW 02:35:06 10° NNE visible
04 Aug 12.4 04:15:27 10° NNW 04:16:45 11° N 04:18:02 10° N visible
04 Aug 11.2 22:33:47 15° E 22:33:47 15° E 22:36:33 10° ENE visible
05 Aug 9.5 00:14:29 46° SSW 00:16:09 87° ESE 00:21:37 10° NE visible
05 Aug 11.6 01:55:54 10° W 02:00:16 24° NW 02:04:39 10° NNE visible
05 Aug 12.4 03:44:07 10° NNW 03:45:47 11° N 03:47:27 10° N visible
05 Aug 11.5 22:03:18 11° E 22:03:18 11° E 22:04:33 10° E visible
05 Aug 9.5 23:43:58 44° S 23:45:37 67° ESE 23:51:01 10° NE visible
06 Aug 11.3 01:24:50 10° W 01:29:30 29° NW 01:34:12 10° NNE visible
06 Aug 12.3 03:12:42 10° NW 03:14:49 12° NNW 03:16:56 10° N visible
06 Aug 12.4 04:58:45 10° N 05:00:50 12° NNE 05:02:55 10° NE visible
06 Aug 9.7 23:13:17 35° S 23:15:08 51° ESE 23:20:23 10° NE visible
07 Aug 11.0 00:53:56 11° WSW 00:58:46 35° NW 01:03:45 10° NNE visible
07 Aug 12.3 02:41:18 10° NW 02:43:53 13° NNW 02:46:29 10° N visible
07 Aug 12.5 04:28:14 10° N 04:29:52 11° N 04:31:30 10° NNE visible
07 Aug 10.0 22:42:19 26° SSE 22:44:41 39° ESE 22:49:41 10° NE visible
08 Aug 10.7 00:22:56 10° WSW 00:28:05 43° NW 00:33:16 10° NNE visible
08 Aug 12.3 02:09:56 10° WNW 02:12:59 15° NNW 02:16:02 10° NNE visible
08 Aug 12.6 03:57:38 10° N 03:58:54 11° N 04:00:10 10° NNE visible
08 Aug 10.4 22:10:52 16° SSE 22:14:16 29° ESE 22:18:54 10° NE visible
08 Aug 10.2 23:52:07 10° SW 23:57:26 54° NW 00:02:46 10° NNE visible
09 Aug 12.2 01:38:37 10° WNW 01:42:06 17° NNW 01:45:36 10° NNE visible
09 Aug 12.7 03:26:50 10° N 03:27:56 11° N 03:29:01 10° NNE visible
09 Aug 12.3 05:10:09 10° NNW 05:13:45 17° NNE 05:17:19 10° ENE visible
09 Aug 10.7 21:39:48 10° SSE 21:43:53 22° ESE 21:48:00 10° ENE visible
09 Aug 9.8 23:21:25 10° SW 23:26:49 69° NW 23:32:15 10° NNE visible
